History for DTO, Texas on Wednesday, October 6, 2004

Jump to data by:

Latest visited Airport Codes: DTO

Data type:
 

« Previous Day | Next Day »

 
Daily Summary
Actual Average (KDFW) Record (KDFW)
Temperature
Mean Temperature 73 °F 71 °F  
Max Temperature 82 °F 81 °F 96 °F (1956)
Min Temperature 66 °F 60 °F 43 °F (1915)
Degree Days
Heating Degree Days 0 1  
Month to date heating degree days 6  
Since 1 July heating degree days 12  
Cooling Degree Days 8 7  
Month to date cooling degree days 44  
Year to date cooling degree days 2621  
Growing Degree Days 23 (Base 50)    
Moisture
Dew Point 62 °F    
Average Humidity 71    
Maximum Humidity 90    
Minimum Humidity 56    
Precipitation
Precipitation 0.00 in 0.11 in 3.44 in (1930)
Month to date precipitation 0.60  
Year to date precipitation 27.26  
Snow
Snow 0.00 in 0.00 in 0.00 in ()
Month to date snowfall 0.0  
Since 1 July snowfall 0.0  
Since 1 September snowfall 0.0  
Snow Depth -    
Sea Level Pressure
Sea Level Pressure 30.10 in    
Wind
Wind Speed 8 mph (SE)    
Max Wind Speed 13 mph    
Max Gust Speed -    
Visibility 10 miles    
Events Thunderstorm   

Click here for data from the nearest station with official NWS data (KDFW).
Key: T is trace of precipitation, MM is missing value
Source: NWS Daily Summary
Time (CDT) Temp. Dew Point Humidity Sea Level Pressure Visibility Wind Direction Wind Speed Gust Speed Precip. Events Conditions
12:53 AM 68.0 °F 61.0 °F 78% 30.12 in 10.0 miles ESE 6.9 mph - N/A   Clear
1:53 AM 68.0 °F 62.1 °F 81% 30.11 in 10.0 miles ESE 6.9 mph - N/A   Clear
2:53 AM 68.0 °F 61.0 °F 78% 30.11 in 10.0 miles ESE 5.8 mph - N/A   Overcast
3:53 AM 68.0 °F 60.1 °F 76% 30.10 in 10.0 miles ESE 9.2 mph - N/A   Mostly Cloudy
4:53 AM 66.0 °F 60.1 °F 81% 30.09 in 10.0 miles East 5.8 mph - 0.00 in   Overcast
5:06 AM 66.2 °F 60.8 °F 83% 30.11 in 10.0 miles ESE 5.8 mph - N/A   Mostly Cloudy
5:53 AM 66.0 °F 59.0 °F 78% 30.10 in 10.0 miles East 5.8 mph - N/A   Scattered Clouds
6:53 AM 66.9 °F 55.9 °F 68% 30.12 in 10.0 miles ESE 9.2 mph - N/A   Mostly Cloudy
7:53 AM 66.0 °F 54.0 °F 65% 30.12 in 10.0 miles ESE 10.4 mph - N/A   Overcast
8:53 AM 66.9 °F 54.0 °F 63% 30.13 in 10.0 miles ESE 9.2 mph - N/A   Scattered Clouds
9:53 AM 69.1 °F 55.0 °F 61% 30.14 in 10.0 miles SE 11.5 mph - N/A   Clear
10:53 AM 73.0 °F 57.9 °F 59% 30.14 in 10.0 miles SE 10.4 mph - N/A   Clear
11:53 AM 75.0 °F 60.1 °F 60% 30.13 in 10.0 miles SE 12.7 mph - N/A   Clear
12:53 PM 79.0 °F 62.1 °F 56% 30.11 in 10.0 miles SE 10.4 mph - N/A   Clear
1:53 PM 79.0 °F 63.0 °F 58% 30.10 in 10.0 miles SE 10.4 mph - N/A   Clear
2:53 PM 79.0 °F 64.0 °F 60% 30.08 in 10.0 miles SE 8.1 mph - N/A   Clear
3:53 PM 80.1 °F 64.9 °F 60% 30.07 in 10.0 miles SE 9.2 mph - N/A   Scattered Clouds
4:53 PM 80.1 °F 64.9 °F 60% 30.06 in 10.0 miles ESE 10.4 mph - N/A   Partly Cloudy
5:53 PM 80.1 °F 66.0 °F 62% 30.06 in 10.0 miles ESE 10.4 mph - N/A   Partly Cloudy
6:53 PM 78.1 °F 66.0 °F 66% 30.06 in 10.0 miles ESE 8.1 mph - N/A   Partly Cloudy
7:53 PM 75.0 °F 66.0 °F 73% 30.07 in 10.0 miles SE 6.9 mph - N/A   Mostly Cloudy
8:53 PM 73.0 °F 64.9 °F 76% 30.08 in 10.0 miles SE 5.8 mph - N/A   Clear
9:53 PM 72.0 °F 66.0 °F 81% 30.09 in 10.0 miles ESE 5.8 mph - N/A   Mostly Cloudy
10:25 PM 71.6 °F 66.2 °F 83% 30.12 in 9.0 miles South 6.9 mph - N/A Thunderstorm Scattered Clouds
10:53 PM 72.0 °F 66.0 °F 81% 30.12 in 10.0 miles SE 11.5 mph - N/A   Overcast
11:53 PM 70.0 °F 66.9 °F 90% 30.11 in 10.0 miles SE 5.8 mph - 0.00 in   Mostly Cloudy

Powered by the Weather Underground, Inc.